Date,TemperatureHighF,TemperatureAvgF,TemperatureLowF,DewpointHighF,DewpointAvgF,DewpointLowF,HumidityHigh,HumidityAvg,HumidityLow,PressureMaxIn,PressureMinIn,WindSpeedMaxMPH,WindSpeedAvgMPH,GustSpeedMaxMPH,PrecipitationSumIn
2013-1-1,26.0,14.7,7.0,15.0,4.7,-5.0,95,67,28,0.00,40.00,12,4,18,0.00
2013-1-2,19.0,13.5,10.0,6.0,-3.2,-14.0,72,48,24,0.00,40.00,14,8,23,0.00
2013-1-3,46.0,27.4,11.0,1.0,-13.4,-26.0,36,18,5,0.00,40.00,4,3,10,0.00
2013-1-4,43.0,30.9,18.0,5.0,-6.6,-21.0,44,22,9,0.00,40.00,5,3,8,0.00
2013-1-5,31.0,20.1,11.0,13.0,-0.8,-31.0,61,43,7,0.00,40.00,5,3,8,0.00
2013-1-6,43.0,33.2,27.0,11.0,-6.0,-25.0,45,20,7,0.00,40.00,11,4,19,0.00
2013-1-7,35.0,27.2,18.0,15.0,7.3,3.0,59,43,27,0.00,40.00,11,6,20,0.00
2013-1-8,30.0,24.6,21.0,13.0,9.6,6.0,67,52,43,0.00,40.00,12,7,22,0.00
2013-1-9,47.0,38.0,29.0,15.0,6.0,-8.0,55,29,13,0.00,40.00,22,11,29,0.00
2013-1-10,42.0,35.1,23.0,20.0,8.4,-9.0,89,38,11,0.00,40.00,20,12,31,0.00
2013-1-11,23.0,4.4,-6.0,21.0,1.6,-10.0,94,87,76,0.00,40.00,7,2,15,0.00
2013-1-12,5.0,-3.2,-8.0,-1.0,-7.3,-12.0,90,82,72,0.00,40.00,4,2,6,0.00
2013-1-13,1.0,-6.3,-13.0,-5.0,-10.8,-17.0,86,80,71,0.00,40.00,4,2,6,0.00
2013-1-14,12.0,-0.0,-9.0,-8.0,-12.8,-17.0,76,56,30,0.00,40.00,7,3,10,0.00
2013-1-15,32.0,23.5,5.0,28.0,15.5,-5.0,99,72,59,0.00,40.00,12,7,22,0.00
2013-1-16,38.0,28.7,18.0,17.0,11.5,6.0,66,50,30,0.00,40.00,11,5,19,0.00
2013-1-17,43.0,29.4,18.0,13.0,6.3,-1.0,68,42,21,0.00,40.00,14,6,19,0.00
2013-1-18,43.0,36.0,32.0,4.0,0.1,-6.0,29,21,16,0.00,40.00,14,9,21,0.00
2013-1-19,36.0,30.5,25.0,13.0,1.1,-10.0,49,29,15,0.00,40.00,20,8,28,0.00
2013-1-20,30.0,22.7,11.0,20.0,8.0,-5.0,100,59,21,0.00,40.00,13,7,23,0.00
2013-1-21,40.0,32.3,28.0,12.0,5.1,-8.0,48,32,21,0.00,40.00,20,11,30,0.00
2013-1-22,40.0,33.0,25.0,6.0,-6.1,-15.0,31,19,9,0.00,40.00,14,5,20,0.00
2013-1-23,47.0,41.3,37.0,-6.0,-10.0,-12.0,15,11,8,0.00,40.00,12,6,20,0.00
2013-1-24,42.0,34.8,24.0,19.0,7.6,-10.0,78,36,11,0.00,40.00,12,5,21,0.00
2013-1-25,41.0,33.4,27.0,14.0,5.6,-4.0,48,31,20,0.00,40.00,13,4,21,0.00
2013-1-26,42.0,34.7,30.0,20.0,15.9,7.0,63,47,33,0.00,40.00,11,5,20,0.00
2013-1-27,37.0,27.0,16.0,24.0,18.3,14.0,100,73,43,0.00,40.00,6,4,10,0.00
2013-1-28,17.0,12.9,5.0,16.0,11.0,1.0,95,92,75,0.00,40.00,6,2,9,0.00
2013-1-29,20.0,8.7,2.0,7.0,-2.9,-14.0,81,59,41,0.00,40.00,10,6,15,0.00
2013-1-30,23.0,14.4,5.0,16.0,5.6,-14.0,97,69,39,0.00,40.00,13,7,22,0.00
2013-1-31,28.0,20.5,7.0,19.0,12.2,-2.0,93,71,51,0.00,40.00,14,6,28,0.00
2013-2-1,29.0,23.8,19.0,22.0,15.4,5.0,97,71,47,0.00,40.00,11,5,24,0.00
2013-2-2,33.0,22.5,16.0,15.0,9.2,-3.0,76,58,21,0.00,40.00,14,4,24,0.00
2013-2-3,39.0,29.7,20.0,11.0,1.1,-9.0,69,33,13,0.00,40.00,13,6,21,0.00
2013-2-4,35.0,28.3,22.0,14.0,9.4,3.0,59,45,36,0.00,40.00,10,6,25,0.00
2013-2-5,38.0,26.5,16.0,22.0,15.5,7.0,96,64,40,0.00,40.00,6,3,15,0.00
2013-2-6,30.0,24.3,15.0,19.0,10.0,0.0,94,57,30,0.00,40.00,7,4,12,0.00
2013-2-7,37.0,23.2,10.0,5.0,-5.6,-17.0,71,34,12,0.00,40.00,11,5,15,0.00
2013-2-8,32.0,24.7,17.0,13.0,-4.2,-19.0,78,31,13,0.00,40.00,8,4,13,0.00
2013-2-9,24.0,17.9,13.0,19.0,14.1,7.0,97,85,63,0.00,40.00,7,3,11,0.00
2013-2-10,18.0,9.6,-1.0,9.0,4.5,-5.0,94,80,49,0.00,40.00,8,4,20,0.00
2013-2-11,30.0,10.0,-2.0,4.0,-4.8,-13.0,74,53,22,0.00,40.00,5,3,15,0.00
2013-2-12,27.0,18.5,11.0,12.0,5.1,-17.0,80,58,21,0.00,40.00,6,3,7,0.00
2013-2-13,30.0,23.5,15.0,20.0,12.7,8.0,97,65,43,0.00,40.00,12,6,26,0.00
2013-2-14,18.0,11.7,8.0,17.0,5.5,-2.0,96,77,43,0.00,40.00,10,6,18,0.00
2013-2-15,30.0,17.6,8.0,16.0,9.8,-1.0,92,73,39,0.00,40.00,14,6,23,0.00
2013-2-16,42.0,30.3,21.0,19.0,10.7,-2.0,71,47,17,0.00,40.00,10,5,19,0.00
2013-2-17,34.0,24.3,14.0,21.0,7.0,-4.0,88,51,20,0.00,40.00,14,8,24,0.00
2013-2-18,17.0,11.9,4.0,13.0,6.7,-6.0,95,81,45,0.00,40.00,8,3,12,0.00
2013-2-19,38.0,23.8,6.0,4.0,-9.2,-28.0,54,26,7,0.00,40.00,7,4,12,0.00
2013-2-20,32.0,20.9,11.0,10.0,3.4,-1.0,74,48,24,0.00,40.00,5,3,7,0.00
2013-2-21,21.0,13.8,6.0,13.0,7.4,-2.0,97,76,48,0.00,40.00,5,3,6,0.00
2013-2-22,23.0,13.1,4.0,9.0,2.7,-7.0,89,64,43,0.00,40.00,7,4,12,0.00
2013-2-23,25.0,20.4,11.0,21.0,12.7,-1.0,97,73,46,0.00,40.00,8,4,13,0.00
2013-2-24,24.0,14.8,10.0,8.0,4.4,-8.0,81,64,41,0.00,40.00,8,4,11,0.00
2013-2-25,35.0,21.3,8.0,15.0,-0.5,-20.0,77,42,13,0.00,40.00,7,3,9,0.00
2013-2-26,24.0,17.2,9.0,17.0,7.4,-3.0,97,67,39,0.00,40.00,10,4,14,0.00
2013-2-27,24.0,15.3,6.0,9.0,2.1,-4.0,68,56,46,0.00,40.00,7,4,13,0.00
2013-2-28,26.0,20.8,16.0,13.0,3.0,-24.0,62,46,27,0.00,40.00,14,6,20,0.00
2013-3-1,38.0,28.9,17.0,27.0,11.5,-24.0,79,53,11,0.00,40.00,16,5,23,0.00
2013-3-2,45.0,36.1,27.0,18.0,14.6,9.0,57,43,23,0.00,40.00,11,5,18,0.00
2013-3-3,38.0,31.4,15.0,26.0,18.5,13.0,99,61,42,0.00,40.00,11,5,17,0.00
2013-3-4,15.0,10.7,2.0,13.0,-5.9,-20.0,95,48,22,0.00,40.00,16,8,26,0.00
2013-3-5,30.0,18.8,4.0,9.0,-8.5,-23.0,45,30,14,0.00,40.00,6,3,15,0.00
2013-3-6,43.0,34.5,25.0,21.0,7.7,-7.0,64,33,20,0.00,40.00,19,9,27,0.00
2013-3-7,36.0,28.9,21.0,25.0,17.4,13.0,83,63,44,0.00,40.00,13,5,18,0.00
2013-3-8,38.0,28.0,19.0,25.0,20.7,14.0,94,75,48,0.00,40.00,6,3,8,0.00
2013-3-9,25.0,21.7,18.0,21.0,12.4,0.0,91,68,41,0.00,40.00,13,7,19,0.00
2013-3-10,37.0,28.6,18.0,17.0,7.1,-14.0,58,41,19,0.00,40.00,5,4,17,0.00
2013-3-11,29.0,22.4,12.0,19.0,12.1,1.0,92,68,31,0.00,40.00,13,6,26,0.00
2013-3-12,34.0,20.2,8.0,18.0,11.5,5.0,93,71,49,0.00,40.00,9,4,16,0.00
2013-3-13,48.0,39.3,32.0,21.0,18.1,16.0,56,42,28,0.00,40.00,15,8,21,0.00
2013-3-14,51.0,42.5,36.0,23.0,19.4,16.0,51,40,28,0.00,40.00,11,6,18,0.00
2013-3-15,49.0,40.6,28.0,25.0,16.1,10.0,87,40,22,0.00,40.00,14,6,21,0.00
2013-3-16,34.0,27.7,24.0,29.0,24.8,18.0,100,89,76,0.00,40.00,6,3,8,0.00
2013-3-17,31.0,23.8,14.0,20.0,11.7,-4.0,85,60,38,0.00,40.00,20,9,34,0.00
2013-3-18,20.0,14.9,11.0,10.0,0.8,-5.0,86,54,36,0.00,40.00,12,6,21,0.00
2013-3-19,22.0,15.0,8.0,13.0,5.2,-6.0,96,69,30,0.00,40.00,10,5,15,0.00
2013-3-20,40.0,29.4,15.0,22.0,4.6,-14.0,57,36,18,0.00,40.00,14,7,21,0.00
2013-3-21,34.0,25.7,15.0,25.0,17.7,3.0,96,74,47,0.00,40.00,8,4,15,0.00
2013-3-22,24.0,12.0,4.0,13.0,7.3,-0.0,93,82,59,0.00,40.00,6,3,12,0.00
2013-3-23,21.0,5.8,-4.0,7.0,-1.1,-12.0,90,74,42,0.00,40.00,6,3,7,0.00
2013-3-24,15.0,5.2,-3.0,4.0,-4.5,-15.0,95,66,34,0.00,40.00,13,5,19,0.00
2013-3-25,27.0,14.8,1.0,12.0,-3.2,-18.0,73,46,20,0.00,40.00,6,3,9,0.00
2013-3-26,34.0,25.1,17.0,4.0,-5.5,-18.0,53,27,12,0.00,40.00,7,4,10,0.00
2013-3-27,41.0,28.1,18.0,18.0,10.9,0.0,62,49,36,0.00,40.00,6,4,10,0.04
2013-3-28,46.0,38.3,31.0,22.0,18.2,14.0,62,45,33,0.00,40.00,8,4,12,0.01
2013-3-29,45.0,36.0,30.0,31.0,20.6,11.0,95,56,26,0.00,40.00,10,4,15,0.00
2013-3-30,39.0,32.2,27.0,30.0,22.0,11.0,100,69,34,0.00,40.00,8,4,15,0.06
2013-3-31,44.0,34.0,23.0,24.0,15.7,6.0,88,50,25,0.00,40.00,14,6,22,0.01
2013-4-1,38.0,28.3,20.0,23.0,16.5,8.0,93,64,30,0.00,40.00,6,3,9,0.00
2013-4-2,46.0,34.9,23.0,18.0,13.1,4.0,68,42,29,0.00,40.00,6,4,10,0.00
2013-4-3,48.0,39.9,30.0,26.0,17.8,8.0,81,42,30,0.00,40.00,11,5,16,0.00
2013-4-4,49.0,41.8,31.0,29.0,23.0,18.0,81,48,31,0.00,40.00,11,7,20,0.00
2013-4-5,51.0,40.8,31.0,36.0,25.5,18.0,98,57,32,0.00,40.00,16,6,23,0.01
2013-4-6,45.0,36.3,31.0,29.0,21.5,15.0,77,55,33,0.00,40.00,9,6,18,0.01
2013-4-7,46.0,35.8,29.0,30.0,22.5,14.0,88,60,33,0.00,40.00,9,5,17,0.01
2013-4-8,30.0,20.7,10.0,28.0,18.1,7.0,100,90,73,0.00,40.00,8,4,13,0.00
2013-4-9,17.0,8.5,1.0,13.0,5.5,-2.0,92,88,80,0.00,40.00,5,3,9,0.00
2013-4-10,33.0,21.8,9.0,26.0,14.0,7.0,91,73,50,0.00,40.00,13,4,20,0.03
2013-4-11,36.0,31.4,26.0,26.0,22.4,16.0,94,71,46,0.00,40.00,12,7,20,0.02
2013-4-12,32.0,25.7,19.0,23.0,15.0,3.0,99,69,31,0.00,40.00,11,5,18,0.00
2013-4-13,46.0,33.1,23.0,28.0,18.0,11.0,93,55,34,0.00,40.00,16,7,28,0.02
2013-4-14,25.0,19.5,10.0,18.0,7.3,0.0,90,61,38,0.00,40.00,11,6,19,0.01
2013-4-15,16.0,9.8,2.0,10.0,6.2,0.0,95,85,70,0.00,40.00,6,3,8,0.00
2013-4-16,15.0,9.9,6.0,10.0,6.1,1.0,92,84,75,0.00,40.00,6,4,9,0.00
2013-4-17,19.0,9.8,1.0,15.0,6.8,-4.0,95,87,73,0.00,40.00,6,3,10,0.00
2013-4-18,30.0,16.8,-1.0,17.0,4.8,-6.0,86,61,32,0.00,40.00,10,4,16,0.00
2013-4-19,35.0,27.7,20.0,23.0,16.5,9.0,82,63,48,0.00,40.00,9,4,13,0.01
2013-4-20,38.0,32.2,25.0,34.0,24.1,19.0,100,73,51,0.00,40.00,9,4,14,0.01
2013-4-21,33.0,25.9,16.0,30.0,24.1,14.0,100,93,79,0.00,40.00,6,4,10,0.02
2013-4-22,16.0,10.8,0.0,14.0,8.3,-4.0,95,90,83,0.00,40.00,6,4,11,0.02
2013-4-23,29.0,14.8,-1.0,20.0,4.0,-6.0,89,65,35,0.00,40.00,5,3,7,0.00
2013-4-24,33.0,24.7,15.0,26.0,10.1,0.0,84,55,34,0.00,40.00,11,6,20,0.00
2013-4-25,45.0,36.5,29.0,14.0,7.5,0.0,46,30,17,0.00,40.00,10,6,20,0.04
2013-4-26,53.0,42.4,32.0,25.0,15.3,7.0,50,34,21,0.00,40.00,9,5,15,0.01
2013-4-27,54.0,47.0,38.0,19.0,16.0,12.0,41,29,22,0.00,40.00,14,8,21,0.00
2013-4-28,47.0,40.2,34.0,39.0,27.0,15.0,98,64,27,0.00,40.00,7,4,13,0.01
2013-4-29,51.0,43.1,35.0,32.0,22.1,17.0,80,46,27,0.00,40.00,16,8,26,0.01
2013-4-30,26.0,21.6,18.0,24.0,20.2,16.0,99,94,90,0.00,40.00,8,5,11,0.00
2013-5-1,26.0,19.0,13.0,20.0,15.1,7.0,96,85,62,0.00,40.00,5,3,8,0.00
2013-5-2,43.0,29.1,13.0,19.0,11.1,3.0,78,48,28,0.00,40.00,8,4,10,0.23
2013-5-3,47.0,39.8,34.0,31.0,15.0,5.0,87,39,24,0.00,40.00,6,4,10,0.05
2013-5-4,36.0,32.9,30.0,34.0,30.5,26.0,100,90,80,0.00,40.00,5,3,8,0.14
2013-5-5,44.0,36.4,25.0,28.0,23.0,19.0,94,61,37,0.00,40.00,6,3,10,0.03
2013-5-6,53.0,42.8,31.0,29.0,23.9,20.0,71,49,33,0.00,40.00,7,4,11,0.00
2013-5-7,59.0,45.6,34.0,30.0,23.5,15.0,61,43,26,0.00,40.00,7,5,15,0.00
2013-5-8,53.0,45.4,38.0,31.0,25.5,20.0,67,47,29,0.00,40.00,11,6,15,0.00
2013-5-9,52.0,42.4,34.0,38.0,29.2,22.0,83,62,33,0.00,40.00,11,5,17,0.04
2013-5-10,56.0,44.9,32.0,38.0,26.5,-99.9,85,53,24,0.00,40.00,11,7,16,0.03
2013-5-11,56.0,44.2,31.0,34.0,29.0,20.0,93,58,29,0.00,40.00,8,4,12,0.02
2013-5-12,63.0,55.2,44.0,37.0,28.8,24.0,75,38,25,0.00,40.00,10,7,16,0.00
2013-5-13,69.0,62.0,54.0,32.0,28.0,24.0,38,28,18,0.00,40.00,12,7,18,0.00
2013-5-14,68.0,58.5,47.0,45.0,31.1,15.0,77,40,13,0.00,40.00,12,6,22,0.00
2013-5-15,62.0,49.7,40.0,39.0,34.7,27.0,82,58,40,0.00,40.00,7,4,10,0.00
2013-5-16,56.0,45.8,43.0,44.0,19.5,-99.9,99,68,47,0.00,40.00,8,4,16,0.00
2013-5-17,53.0,46.0,42.0,48.0,34.0,-99.9,100,77,50,0.00,40.00,11,5,20,0.08
2013-5-18,51.0,40.9,37.0,42.0,36.3,30.0,100,85,61,0.00,40.00,10,4,13,0.03
2013-5-19,50.0,39.7,36.0,39.0,36.2,32.0,100,88,62,0.00,40.00,9,5,16,0.12
2013-5-20,40.0,35.0,33.0,33.0,29.0,23.0,100,80,50,0.00,40.00,14,8,21,0.27
2013-5-21,50.0,40.7,32.0,35.0,25.2,3.0,100,61,15,0.00,40.00,9,5,12,0.01
2013-5-22,50.0,43.1,30.0,41.0,30.3,15.0,100,64,34,0.00,40.00,7,4,11,0.00
2013-5-23,62.0,47.1,36.0,44.0,38.4,24.0,100,76,24,0.00,40.00,11,8,18,0.00
2013-5-24,58.0,49.4,40.0,42.0,25.7,6.0,100,52,13,0.00,40.00,10,5,17,0.00
2013-5-25,65.0,55.1,43.0,40.0,17.2,3.0,89,25,15,0.00,40.00,10,6,17,0.00
2013-5-26,59.0,50.2,41.0,45.0,33.7,19.0,91,55,32,0.00,40.00,9,5,16,0.03
2013-5-27,56.0,47.8,42.0,40.0,29.7,17.0,89,53,28,0.00,40.00,12,6,30,0.03
2013-5-28,55.0,44.9,36.0,38.0,29.5,19.0,83,56,29,0.00,40.00,10,4,15,0.04
2013-5-29,47.0,40.8,38.0,42.0,38.8,36.0,100,93,81,0.00,40.00,6,3,11,0.53
2013-5-30,43.0,39.7,37.0,38.0,32.3,26.0,100,76,58,0.00,40.00,14,6,20,0.25
2013-5-31,45.0,40.0,36.0,30.0,26.9,24.0,73,59,48,0.00,40.00,14,8,23,0.01
2013-6-1,46.0,40.2,30.0,38.0,31.5,20.0,94,72,38,0.00,40.00,11,5,19,0.00
2013-6-2,62.0,51.3,39.0,42.0,32.0,25.0,70,49,24,0.00,40.00,8,4,16,0.00
2013-6-3,58.0,48.5,42.0,39.0,27.0,21.0,78,45,27,0.00,40.00,16,9,24,0.02
2013-6-4,42.0,34.8,31.0,39.0,32.3,24.0,100,92,50,0.00,40.00,7,4,13,0.02
2013-6-5,50.0,39.9,27.0,37.0,33.4,27.0,100,79,59,0.00,40.00,6,3,11,0.02
2013-6-6,59.0,50.5,39.0,41.0,35.1,24.0,84,56,40,0.00,40.00,10,5,14,0.00
2013-6-7,66.0,55.7,43.0,50.0,35.6,29.0,81,49,28,0.00,40.00,9,6,16,0.01
2013-6-8,58.0,49.2,42.0,41.0,35.9,19.0,94,63,22,0.00,40.00,12,6,21,0.09
2013-6-9,71.0,58.8,43.0,40.0,31.3,21.0,85,40,18,0.00,40.00,9,6,17,0.00
2013-6-10,65.0,61.6,52.0,47.0,38.3,27.0,79,44,25,0.00,40.00,14,6,19,0.00
2013-6-11,66.0,55.9,45.0,57.0,45.6,31.0,99,71,37,0.00,40.00,12,4,27,0.05
2013-6-12,62.0,54.7,45.0,54.0,45.8,35.0,100,73,53,0.00,40.00,8,5,11,0.39
2013-6-13,70.0,58.1,46.0,51.0,42.4,34.0,96,62,29,0.00,40.00,15,7,21,0.38
2013-6-14,58.0,49.4,36.0,44.0,32.6,15.0,95,59,21,0.00,40.00,13,6,21,0.00
2013-6-15,63.0,48.7,34.0,37.0,28.6,5.0,94,52,10,0.00,40.00,7,4,12,0.00
2013-6-16,63.0,52.7,42.0,41.0,34.8,18.0,78,53,19,0.00,40.00,9,4,14,0.00
2013-6-17,61.0,52.7,43.0,49.0,43.2,37.0,85,71,51,0.00,40.00,6,4,10,0.00
2013-6-18,64.0,52.2,45.0,45.0,39.5,28.0,91,64,31,0.00,40.00,10,5,16,0.13
2013-6-19,75.0,65.3,52.0,41.0,24.1,7.0,65,26,8,0.00,40.00,19,11,27,0.01
2013-6-20,60.0,56.9,54.0,40.0,13.7,4.0,59,20,11,0.00,40.00,23,15,32,0.00
2013-6-22,55.0,44.8,40.0,49.0,41.1,36.0,100,88,51,0.00,40.00,7,4,15,0.53
2013-6-23,62.0,48.3,37.0,44.0,34.9,24.0,100,64,23,0.00,40.00,9,5,16,0.29
2013-6-24,71.0,59.0,46.0,40.0,30.1,23.0,57,36,19,0.00,40.00,11,6,26,0.00
2013-6-25,65.0,58.0,50.0,49.0,35.3,26.0,79,44,28,0.00,40.00,10,6,19,0.00
2013-6-26,71.0,61.6,53.0,49.0,39.0,30.0,71,45,30,0.00,40.00,8,5,17,0.00
2013-6-27,72.0,60.7,50.0,50.0,44.0,33.0,86,58,26,0.00,40.00,10,4,15,0.00
2013-6-28,68.0,61.3,51.0,53.0,48.6,44.0,87,64,48,0.00,40.00,6,4,9,0.00
2013-6-29,69.0,61.6,52.0,55.0,49.2,43.0,78,64,51,0.00,40.00,5,3,9,0.05
2013-6-30,67.0,59.9,52.0,52.0,46.8,41.0,84,63,42,0.00,40.00,6,4,10,0.05
2013-7-1,69.0,61.3,51.0,50.0,45.8,36.0,80,58,47,0.00,40.00,6,4,10,0.00
2013-7-2,72.0,61.4,49.0,50.0,44.1,38.0,86,56,31,0.00,40.00,6,4,10,0.00
2013-7-3,75.0,67.3,54.0,49.0,42.0,36.0,59,41,24,0.00,40.00,11,7,16,0.00
2013-7-4,70.0,61.8,51.0,58.0,48.6,27.0,98,64,33,0.00,40.00,7,4,18,0.74
2013-7-5,67.0,57.4,49.0,52.0,49.1,46.0,100,75,52,0.00,40.00,9,4,15,0.35
2013-7-6,66.0,58.2,53.0,55.0,46.2,38.0,83,64,48,0.00,40.00,8,4,10,0.01
2013-7-7,72.0,62.7,53.0,50.0,42.7,29.0,84,52,21,0.00,40.00,9,5,17,0.00
2013-7-8,71.0,60.7,53.0,48.0,42.2,34.0,80,53,27,0.00,40.00,18,5,26,0.00
2013-7-9,66.0,59.1,50.0,49.0,43.9,33.0,82,57,43,0.00,40.00,6,4,10,0.00
2013-7-10,77.0,64.0,50.0,47.0,39.9,-99.9,86,47,17,0.00,40.00,6,4,15,0.00
2013-7-11,82.0,68.7,55.0,46.0,36.4,23.0,62,35,13,0.00,40.00,12,6,19,0.00
2013-7-12,64.0,59.1,54.0,52.0,46.6,41.0,81,64,45,0.00,40.00,7,4,15,0.00
2013-7-13,77.0,64.0,53.0,48.0,34.1,21.0,77,37,14,0.00,40.00,7,4,14,0.00
2013-7-14,68.0,57.5,49.0,52.0,47.6,38.0,100,72,43,0.00,40.00,6,4,10,0.01
2013-7-15,78.0,63.8,54.0,49.0,40.5,23.0,81,46,13,0.00,40.00,8,4,12,0.01
2013-7-16,70.0,63.8,53.0,54.0,51.8,50.0,95,67,53,0.00,40.00,7,5,10,0.00
2013-7-17,74.0,65.0,53.0,52.0,45.5,38.0,91,52,32,0.00,40.00,7,4,10,0.00
2013-7-18,73.0,66.0,58.0,51.0,46.5,35.0,66,50,37,0.00,40.00,6,4,14,0.00
2013-7-19,75.0,64.8,53.0,47.0,43.4,38.0,75,48,32,0.00,40.00,7,4,13,0.00
2013-7-20,72.0,62.5,53.0,42.0,37.7,-99.9,57,42,30,0.00,40.00,5,4,10,0.00
2013-7-21,75.0,64.1,51.0,43.0,36.1,25.0,68,39,20,0.00,40.00,8,4,11,0.00
2013-7-22,80.0,63.7,50.0,38.0,29.5,10.0,54,32,7,0.00,40.00,13,6,18,0.00
2013-7-23,72.0,63.1,52.0,38.0,34.0,29.0,56,35,24,0.00,40.00,6,4,11,0.00
2013-7-24,76.0,62.0,49.0,44.0,39.0,31.0,67,46,19,0.00,40.00,10,5,14,0.00
2013-7-25,64.0,57.1,48.0,53.0,45.1,38.0,85,65,48,0.00,40.00,7,4,11,0.23
2013-7-26,68.0,59.6,47.0,47.0,44.5,34.0,86,59,38,0.00,40.00,7,4,11,0.01
2013-7-27,69.0,58.6,52.0,49.0,41.5,32.0,83,55,30,0.00,40.00,11,5,16,0.63
2013-7-28,67.0,56.8,49.0,49.0,42.8,35.0,93,62,43,0.00,40.00,5,3,11,0.05
2013-7-29,59.0,53.6,48.0,53.0,46.2,34.0,89,76,41,0.00,40.00,8,4,12,0.01
2013-7-30,67.0,58.1,49.0,49.0,41.3,30.0,87,57,25,0.00,40.00,13,6,23,0.10
2013-7-31,68.0,58.9,47.0,48.0,44.1,38.0,90,60,47,0.00,40.00,5,4,9,0.01
2013-8-1,71.0,60.2,50.0,49.0,42.5,36.0,82,54,34,0.00,40.00,8,4,12,0.15
2013-8-2,69.0,55.3,47.0,57.0,46.5,29.0,100,76,23,0.00,40.00,7,4,13,0.15
2013-8-3,66.0,57.7,49.0,57.0,50.6,45.0,91,78,62,0.00,40.00,8,4,11,0.00
2013-8-4,74.0,59.2,52.0,56.0,48.2,29.0,89,71,19,0.00,40.00,6,4,16,0.04
2013-8-5,75.0,58.4,48.0,53.0,43.7,24.0,99,69,15,0.00,40.00,10,5,16,0.04
2013-8-6,65.0,56.3,47.0,44.0,40.7,36.0,69,56,45,0.00,40.00,6,4,21,0.00
2013-8-7,71.0,56.9,45.0,48.0,41.4,36.0,80,59,33,0.00,40.00,6,4,15,0.00
2013-8-8,65.0,55.8,48.0,47.0,43.1,35.0,87,65,34,0.00,40.00,6,4,12,0.06
2013-8-9,59.0,52.7,47.0,51.0,46.3,41.0,92,80,57,0.00,40.00,5,3,13,0.35
2013-8-10,69.0,58.8,47.0,47.0,42.4,31.0,98,57,41,0.00,40.00,8,5,12,0.01
2013-8-11,69.0,60.1,50.0,44.0,36.0,30.0,64,41,26,0.00,40.00,10,4,14,0.03
2013-8-12,68.0,59.7,50.0,40.0,34.2,29.0,63,40,26,0.00,40.00,7,4,17,0.01
2013-8-13,69.0,54.3,47.0,49.0,34.6,-99.9,80,51,35,0.00,40.00,10,5,16,0.16
2013-8-14,66.0,54.7,45.0,42.0,33.4,-99.9,67,49,36,0.00,40.00,6,4,10,0.01
2013-8-15,72.0,58.0,51.0,43.0,27.5,-99.9,58,40,27,0.00,40.00,6,4,9,0.00
2013-8-16,80.0,65.2,54.0,36.0,24.7,-99.9,49,27,10,0.00,40.00,7,4,12,0.00
2013-8-17,79.0,67.7,58.0,37.0,27.0,-99.9,46,25,11,0.00,40.00,9,4,13,0.00
2013-8-18,76.0,64.3,55.0,47.0,37.0,27.0,70,39,18,0.00,40.00,9,5,15,0.00
2013-8-19,77.0,65.4,55.0,46.0,30.7,-99.9,68,37,23,0.00,40.00,6,4,10,0.00
2013-8-20,73.0,64.9,58.0,39.0,31.3,-99.9,48,31,20,0.00,40.00,7,4,10,0.00
2013-8-21,72.0,63.0,57.0,42.0,37.8,32.0,54,40,25,0.00,40.00,7,4,10,0.00
2013-8-22,71.0,60.9,55.0,54.0,46.3,38.0,91,60,33,0.00,40.00,8,4,10,0.05
2013-8-23,78.0,67.9,59.0,46.0,39.9,30.0,62,38,18,0.00,40.00,11,6,17,0.03
2013-8-24,67.0,58.8,53.0,52.0,45.1,-99.9,81,63,48,0.00,40.00,5,3,17,0.14
2013-8-25,75.0,63.1,53.0,46.0,40.2,35.0,70,46,23,0.00,40.00,11,4,16,0.00
2013-8-26,76.0,64.8,60.0,45.0,38.4,31.0,53,38,23,0.00,40.00,13,5,19,0.00
2013-8-27,70.0,63.0,57.0,43.0,39.9,37.0,54,43,31,0.00,40.00,6,4,10,0.00
2013-8-28,77.0,69.8,61.0,45.0,40.1,35.0,47,35,26,0.00,40.00,8,5,13,0.02
2013-8-29,74.0,65.5,55.0,45.0,41.0,37.0,66,42,31,0.00,40.00,6,4,12,0.02
2013-8-30,80.0,66.0,55.0,43.0,35.0,24.0,61,36,13,0.00,40.00,8,4,17,0.01
2013-8-31,65.0,58.3,48.0,41.0,36.0,-99.9,66,45,33,0.00,40.00,8,4,10,0.00
2013-9-1,73.0,61.0,47.0,39.0,35.1,31.0,72,41,24,0.00,40.00,7,4,10,0.00
2013-9-2,76.0,63.7,52.0,53.0,39.1,23.0,88,43,22,0.00,40.00,10,6,19,0.05
2013-9-3,72.0,63.6,56.0,51.0,48.3,46.0,78,59,42,0.00,40.00,5,4,9,0.05
2013-9-4,79.0,66.4,55.0,49.0,45.0,39.0,74,48,26,0.00,40.00,8,4,15,0.00
2013-9-5,79.0,68.3,57.0,48.0,41.3,34.0,72,40,23,0.00,40.00,8,5,12,0.00
2013-9-6,76.0,67.2,58.0,47.0,41.5,35.0,53,40,28,0.00,40.00,8,5,11,0.00
2013-9-7,73.0,63.1,55.0,51.0,45.0,-99.9,75,54,39,0.00,40.00,7,4,24,0.29
2013-9-8,64.0,55.6,49.0,54.0,48.9,42.0,97,79,59,0.00,40.00,8,4,13,0.30
2013-9-9,56.0,49.6,45.0,47.0,42.2,38.0,92,76,64,0.00,40.00,5,3,7,0.00
2013-9-10,60.0,51.5,42.0,44.0,40.7,37.0,83,68,51,0.00,40.00,5,3,9,0.00
2013-9-11,64.0,54.7,45.0,42.0,37.3,34.0,77,53,38,0.00,40.00,6,4,9,0.00
2013-9-12,60.0,52.2,45.0,47.0,40.7,36.0,80,66,46,0.00,40.00,11,5,16,0.02
2013-9-13,65.0,53.1,48.0,53.0,47.2,43.0,98,81,51,0.00,40.00,8,4,15,0.06
2013-9-14,56.0,48.9,44.0,51.0,44.4,-99.9,98,88,65,0.00,40.00,8,4,13,0.51
2013-9-15,56.0,49.5,45.0,48.0,43.9,37.0,99,82,61,0.00,40.00,9,5,12,0.47
2013-9-16,67.0,56.6,45.0,47.0,40.8,33.0,73,56,41,0.00,40.00,6,3,10,0.01
2013-9-17,70.0,58.8,50.0,44.0,37.0,29.0,77,48,27,0.00,40.00,10,7,19,0.08
2013-9-18,51.0,45.3,41.0,42.0,36.8,20.0,85,73,40,0.00,40.00,12,6,20,0.25
2013-9-19,47.0,37.1,31.0,38.0,31.8,22.0,98,82,53,0.00,40.00,6,3,9,0.01
2013-9-20,60.0,47.4,34.0,36.0,26.4,7.0,79,47,18,0.00,40.00,4,3,7,0.01
2013-9-21,67.0,60.4,51.0,25.0,17.7,-99.9,26,20,15,0.00,40.00,16,8,20,0.00
2013-9-22,64.0,55.2,45.0,35.0,29.3,18.0,59,38,21,0.00,40.00,10,6,22,0.00
2013-9-23,54.0,44.7,38.0,41.0,32.4,22.0,96,65,30,0.00,40.00,9,4,14,0.04
2013-9-24,59.0,51.6,38.0,27.0,22.1,16.0,52,33,20,0.00,40.00,19,10,27,0.02
2013-9-25,52.0,43.0,33.0,37.0,31.5,21.0,97,67,36,0.00,40.00,9,4,15,0.21
2013-9-26,35.0,30.9,27.0,34.0,30.1,27.0,99,96,75,0.00,40.00,9,3,14,0.22
2013-9-27,33.0,27.4,22.0,31.0,26.5,21.0,99,96,86,0.00,40.00,4,2,7,0.01
2013-9-28,44.0,36.3,24.0,28.0,21.4,-99.9,84,57,45,0.00,40.00,20,9,26,0.53
2013-9-29,49.0,45.2,41.0,31.0,26.4,22.0,59,48,40,0.00,40.00,14,6,23,0.02
2013-9-30,55.0,47.0,41.0,35.0,31.7,27.0,61,55,47,0.00,40.00,23,13,36,0.02
2013-10-1,53.0,44.0,38.0,31.0,26.3,25.0,66,51,33,0.00,40.00,5,3,16,0.01
2013-10-2,43.0,35.9,28.0,32.0,29.5,26.0,99,78,52,0.00,40.00,5,3,7,0.01
2013-10-3,33.0,29.8,25.0,31.0,28.9,24.0,99,96,90,0.00,40.00,4,3,7,0.00
2013-10-4,27.0,22.9,20.0,23.0,18.1,14.0,97,83,62,0.00,40.00,11,5,18,0.00
2013-10-5,45.0,29.6,17.0,30.0,17.7,7.0,82,63,34,0.00,40.00,4,3,19,0.13
2013-10-6,56.0,44.5,33.0,39.0,26.7,8.0,64,51,22,0.00,40.00,6,3,14,0.03
2013-10-7,62.0,54.1,46.0,18.0,11.9,5.0,31,20,10,0.00,40.00,10,6,16,0.00
2013-10-8,51.0,42.8,32.0,33.0,24.0,10.0,90,51,21,0.00,40.00,5,3,14,0.00
2013-10-9,49.0,36.0,32.0,37.0,29.2,23.0,91,77,59,0.00,40.00,10,4,14,0.00
2013-10-10,50.0,40.1,32.0,34.0,28.1,22.0,84,65,36,0.00,40.00,9,4,16,0.00
2013-10-11,38.0,33.1,23.0,30.0,20.2,10.0,89,61,39,0.00,40.00,11,6,19,0.00
2013-10-12,38.0,29.3,22.0,26.0,18.8,-99.9,86,68,42,0.00,40.00,6,3,8,0.00
2013-10-13,43.0,34.9,31.0,32.0,26.2,17.0,99,72,48,0.00,40.00,9,4,13,0.00
2013-10-14,32.0,27.3,20.0,32.0,22.9,13.0,100,84,62,0.00,40.00,8,4,17,0.00
2013-10-15,34.0,23.1,19.0,21.0,17.2,-1.0,96,79,39,0.00,40.00,6,3,11,0.00
2013-10-16,42.0,29.0,19.0,21.0,9.1,-4.0,86,47,15,0.00,40.00,5,3,9,0.03
2013-10-17,25.0,22.2,20.0,24.0,20.9,14.0,98,94,89,0.00,40.00,5,3,11,0.02
2013-10-18,33.0,24.0,14.0,24.0,16.1,7.0,95,73,51,0.00,40.00,11,4,20,0.00
2013-10-19,46.0,34.0,26.0,23.0,17.4,-99.9,67,53,35,0.00,40.00,5,3,8,0.11
2013-10-20,35.0,30.3,27.0,29.0,19.5,14.0,98,65,46,0.00,40.00,14,7,23,0.01
2013-10-21,42.0,36.8,32.0,31.0,23.5,15.0,69,59,50,0.00,40.00,13,7,24,0.01
2013-10-22,46.0,38.7,33.0,33.0,27.6,21.0,83,65,41,0.00,40.00,7,4,13,0.00
2013-10-23,44.0,37.0,29.0,33.0,25.6,17.0,97,65,46,0.00,40.00,5,3,7,0.00
2013-10-24,44.0,35.3,29.0,34.0,27.3,20.0,91,73,57,0.00,40.00,5,3,7,0.00
2013-10-25,54.0,41.8,33.0,29.0,22.2,15.0,77,47,27,0.00,40.00,5,4,7,0.00
2013-10-26,52.0,40.5,32.0,25.0,17.6,-99.9,65,44,19,0.00,40.00,12,4,17,0.00
2013-10-27,48.0,40.5,30.0,23.0,19.8,12.0,74,46,25,0.00,40.00,8,5,16,0.00
2013-10-28,32.0,23.6,17.0,26.0,20.7,-99.9,99,93,74,0.00,40.00,5,3,8,0.00
2013-10-29,40.0,26.9,16.0,28.0,21.2,15.0,98,81,56,0.00,40.00,12,5,18,0.14
2013-10-30,38.0,26.4,20.0,28.0,21.2,16.0,98,81,57,0.00,40.00,5,3,12,0.02
2013-10-31,38.0,28.8,20.0,24.0,18.5,12.0,88,66,47,0.00,40.00,12,5,20,0.00
2013-11-1,34.0,27.1,21.0,17.0,12.8,8.0,81,56,37,0.00,40.00,14,7,22,0.00
2013-11-2,53.0,35.1,22.0,16.0,7.2,-99.9,71,37,9,0.00,40.00,16,7,26,0.01
2013-11-3,42.0,27.8,17.0,25.0,17.4,7.0,97,71,29,0.00,40.00,18,6,26,0.01
2013-11-4,23.0,14.5,8.0,17.0,9.9,3.0,92,82,59,0.00,40.00,5,3,12,0.00
2013-11-5,23.0,14.4,6.0,14.0,5.2,-2.0,92,69,35,0.00,40.00,10,4,17,0.00
2013-11-6,29.0,24.8,19.0,17.0,10.9,3.0,76,55,46,0.00,40.00,10,6,15,0.00
2013-11-7,43.0,32.0,19.0,25.0,20.2,15.0,90,63,43,0.00,40.00,18,7,27,0.00
2013-11-8,37.0,32.4,26.0,27.0,17.7,9.0,77,56,33,0.00,40.00,18,9,27,0.01
2013-11-9,36.0,26.1,22.0,24.0,20.5,15.0,92,80,53,0.00,40.00,9,3,15,0.00
2013-11-10,47.0,43.1,37.0,24.0,22.6,18.0,54,44,39,0.00,40.00,15,9,21,0.00
2013-11-11,43.0,30.6,25.0,29.0,24.1,12.0,99,79,39,0.00,40.00,9,3,16,0.00
2013-11-12,55.0,44.2,26.0,14.0,6.3,-5.0,56,24,11,0.00,40.00,7,4,13,0.00
2013-11-13,49.0,40.2,30.0,28.0,21.8,15.0,90,51,29,0.00,40.00,13,5,19,0.00
2013-11-14,33.0,27.2,22.0,25.0,19.2,2.0,96,75,30,0.00,40.00,7,3,12,0.00
2013-11-15,35.0,28.0,22.0,19.0,9.6,4.0,78,47,32,0.00,40.00,12,5,18,0.00
2013-11-16,32.0,24.5,19.0,18.0,11.5,-99.9,87,60,37,0.00,40.00,19,7,26,0.00
2013-11-17,25.0,20.1,16.0,19.0,7.2,3.0,94,58,45,0.00,40.00,14,7,21,0.00
2013-11-18,45.0,35.6,19.0,12.0,7.0,4.0,54,31,19,0.00,40.00,11,7,20,0.00
2013-11-19,42.0,37.4,35.0,20.0,13.6,4.0,51,38,25,0.00,40.00,12,6,18,0.00
2013-11-20,42.0,26.1,7.0,20.0,13.7,5.0,96,63,36,0.00,40.00,11,5,16,0.00
2013-11-21,18.0,8.1,4.0,8.0,2.0,-17.0,91,78,33,0.00,40.00,3,2,6,0.00
2013-11-22,26.0,16.9,11.0,0.0,-6.1,-16.0,55,37,21,0.00,40.00,5,3,8,0.00
2013-11-23,38.0,24.2,11.0,9.0,2.1,-10.0,55,40,19,0.00,40.00,4,2,6,0.01
2013-11-24,43.0,33.2,25.0,17.0,3.9,-14.0,56,31,14,0.00,40.00,13,4,20,0.01
2013-11-25,33.0,26.4,19.0,19.0,14.6,9.0,84,62,48,0.00,40.00,8,3,13,0.00
2013-11-26,38.0,29.9,26.0,22.0,14.8,10.0,62,53,40,0.00,40.00,10,3,16,0.00
2013-11-27,43.0,34.7,25.0,19.0,13.4,6.0,73,44,24,0.00,40.00,11,4,18,0.00
2013-11-28,45.0,33.8,24.0,18.0,13.1,9.0,68,45,27,0.00,40.00,6,3,13,0.00
2013-11-29,43.0,37.3,33.0,16.0,11.8,7.0,45,35,27,0.00,40.00,10,6,16,0.00
2013-11-30,34.0,29.2,23.0,20.0,15.2,-99.9,82,59,39,0.00,40.00,5,3,13,0.00
2013-12-1,34.0,31.3,27.0,25.0,18.7,16.0,75,60,48,0.00,40.00,14,7,24,0.00
2013-12-2,38.0,31.6,21.0,26.0,22.7,20.0,98,71,49,0.00,40.00,16,10,26,0.00
2013-12-3,21.0,2.3,-8.0,20.0,-0.5,-12.0,96,88,81,0.00,40.00,3,2,7,0.00
2013-12-4,0.0,-9.9,-16.0,-7.0,-14.9,-21.0,84,78,66,0.00,40.00,3,2,6,0.00
2013-12-5,-3.0,-13.6,-20.0,-11.0,-18.5,-25.0,84,78,67,0.00,40.00,4,2,6,0.00
2013-12-6,-4.0,-14.2,-20.0,-15.0,-21.4,-25.0,79,70,47,0.00,40.00,3,2,5,0.00
2013-12-7,12.0,-0.8,-13.0,0.0,-9.8,-99.9,83,69,53,0.00,40.00,5,3,11,0.00
2013-12-8,2.0,-5.5,-14.0,-4.0,-10.8,-19.0,85,78,39,0.00,40.00,4,3,11,0.00
2013-12-9,14.0,4.3,-12.0,4.0,-8.1,-28.0,71,56,38,0.00,40.00,18,9,25,0.00
2013-12-10,17.0,10.5,0.0,3.0,0.0,-4.0,91,64,42,0.00,40.00,18,8,25,0.00
2013-12-11,28.0,14.5,1.0,5.0,-3.9,-9.0,87,47,24,0.00,40.00,7,3,20,0.00
2013-12-12,44.0,33.7,28.0,15.0,9.4,3.0,49,36,28,0.00,40.00,11,5,20,0.00
2013-12-13,29.0,21.4,15.0,18.0,12.9,8.0,96,71,41,0.00,40.00,5,3,7,0.00
2013-12-14,34.0,23.9,14.0,18.0,12.2,-99.9,86,64,48,0.00,40.00,11,3,17,0.00
2013-12-15,42.0,36.0,31.0,18.0,9.6,1.0,56,35,18,0.00,40.00,16,12,26,0.00
2013-12-16,35.0,32.3,31.0,13.0,10.4,8.0,44,40,34,0.00,40.00,15,12,25,0.00
2013-12-17,44.0,37.7,26.0,17.0,10.9,4.0,58,34,19,0.00,40.00,17,13,27,0.00
2013-12-18,44.0,36.1,24.0,16.0,11.0,3.0,72,38,19,0.00,40.00,20,9,29,0.00
2013-12-19,26.0,15.2,5.0,16.0,9.8,2.0,94,80,56,0.00,40.00,5,2,6,0.00
2013-12-20,20.0,12.6,4.0,7.0,0.5,-4.0,82,59,40,0.00,40.00,5,3,15,0.00
2013-12-21,19.0,13.3,10.0,11.0,5.2,-99.9,92,73,52,0.00,40.00,4,2,8,0.00
2013-12-22,13.0,9.2,6.0,9.0,4.7,-2.0,91,82,53,0.00,40.00,14,5,21,0.00
2013-12-23,36.0,22.4,5.0,23.0,11.2,-4.0,77,62,46,0.00,40.00,21,6,29,0.02
2013-12-24,32.0,21.4,11.0,22.0,12.1,6.0,93,68,49,0.00,40.00,24,8,29,0.01
2013-12-25,35.0,21.7,9.0,12.0,6.3,-8.0,81,56,16,0.00,40.00,7,3,16,0.00
2013-12-26,39.0,32.7,27.0,22.0,15.4,10.0,60,49,37,0.00,40.00,12,6,24,0.00
2013-12-27,49.0,38.7,33.0,25.0,16.3,2.0,61,42,23,0.00,40.00,15,5,19,0.00
2013-12-28,41.0,25.9,6.0,20.0,5.6,-99.9,90,51,16,0.00,40.00,14,8,21,0.00
2013-12-29,26.0,18.6,8.0,12.0,3.7,-4.0,68,52,40,0.00,40.00,12,5,21,0.00
2013-12-30,29.0,24.9,20.0,17.0,10.4,5.0,81,55,39,0.00,40.00,17,9,25,0.00
2013-12-31,32.0,28.4,19.0,23.0,17.3,13.0,97,64,51,0.00,40.00,17,10,25,0.00
2014-1-1,22.0,16.1,10.0,18.0,11.0,3.0,96,81,47,0.00,40.00,11,4,16,0.00
2014-1-2,36.0,24.7,12.0,21.0,10.0,0.0,65,53,32,0.00,40.00,10,4,19,0.00